Change the Weather History Date:

Tuesday, July 30, 2013

  Actual Average Record
Temperature  
Mean Temperature 79 °F -  
Max Temperature 86 °F 91 °F 107 °F (1980)
Min Temperature 72 °F 67 °F 53 °F (1971)
Cooling Degree Days 14    
Growing Degree Days 29 (Base 50)    
Moisture  
Dew Point 72 °F    
Average Humidity 85    
Maximum Humidity 94    
Minimum Humidity 67    
Precipitation  
Precipitation 0.18 in - - ()
Sea Level Pressure  
Sea Level Pressure 30.00 in    
Wind  
Wind Speed 4 mph (SW)    
Max Wind Speed 10 mph    
Max Gust Speed 28 mph    
Visibility 9 miles    
Events Rain , Thunderstorm    
Averages and records for this station are not official NWS values.
T = Trace of Precipitation, MM = Missing Value Source: NWS Daily Summary

Daily Weather History Graph

Daily Weather History Graph

Search for Another Location

Airport or City:

Trip Planner

Search our weather history database for the weather conditions in past years. The results will help you decide how hot, cold, wet, or windy it might be!

Date:

Astronomy

Jul. 30, 2013 Rise Set
Actual Time 6:25 AM CDT 8:31 PM CDT
Civil Twilight 5:56 AM CDT 9:00 PM CDT
Nautical Twilight 5:20 AM CDT 9:35 PM CDT
Astronomical Twilight 4:42 AM CDT 10:13 PM CDT
Moon 12:42 AM CDT (7/30) 2:52 PM CDT (7/30)
Length of Visible Light 15h 04m
Length of Day
14h 06m
Last Quarter, 41% of the Moon is Illuminated
Jul 30
Last Quarter
Aug 6
New
Aug 14
First Quarter
Aug 20
Full
Aug 28
Last Quarter

Hourly Weather History & Observations

Time (CDT) Temp. Heat Index Dew Point Humidity Pressure Visibility Wind Dir Wind Speed Gust Speed Precip Events Conditions
12:25 AM 73.4 °F - 69.8 °F 88% 29.99 in 10.0 mi Calm Calm - 0.01 in Rain , Thunderstorm Light Rain
12:52 AM 73.0 °F - 71.1 °F 93% 29.99 in 7.0 mi Calm Calm - 0.02 in Rain , Thunderstorm Thunderstorms and Rain
1:40 AM 75.2 °F - 73.4 °F 94% 29.94 in 6.0 mi South 10.4 mph 27.6 mph 0.10 in Rain Light Rain
1:52 AM 75.9 °F - 73.9 °F 94% 29.94 in 7.0 mi SSW 9.2 mph 19.6 mph 0.10 in Rain Light Rain
2:52 AM 75.0 °F - 73.0 °F 94% 29.95 in 7.0 mi South 5.8 mph - 0.00 in   Partly Cloudy
3:06 AM 75.2 °F - 73.4 °F 94% 29.98 in 6.0 mi South 3.5 mph - N/A   Mostly Cloudy
3:19 AM 75.2 °F - 73.4 °F 94% 29.98 in 6.0 mi Variable 3.5 mph - N/A   Overcast
3:52 AM 75.0 °F - 73.0 °F 94% 29.95 in 5.0 mi Calm Calm - N/A   Overcast
4:10 AM 75.2 °F - 73.4 °F 94% 29.99 in 5.0 mi SSW 3.5 mph - 0.00 in Rain Light Rain
4:29 AM 73.4 °F - 71.6 °F 94% 29.99 in 2.5 mi SW 3.5 mph - 0.05 in Rain Heavy Rain
4:38 AM 73.4 °F - 71.6 °F 94% 30.00 in 6.0 mi SW 4.6 mph - 0.06 in Rain Light Rain
4:48 AM 73.4 °F - 71.6 °F 94% 30.00 in 10.0 mi SSW 5.8 mph - 0.06 in   Overcast
4:52 AM 73.9 °F - 71.1 °F 91% 29.97 in 10.0 mi SSW 8.1 mph - 0.06 in   Overcast
5:14 AM 73.4 °F - 71.6 °F 94% 30.00 in 10.0 mi SW 4.6 mph - 0.00 in   Overcast
5:52 AM 72.0 °F - 70.0 °F 93% 29.97 in 10.0 mi SSE 3.5 mph - 0.00 in   Mostly Cloudy
6:52 AM 72.0 °F - 70.0 °F 93% 29.99 in 10.0 mi Calm Calm - N/A   Mostly Cloudy
7:52 AM 72.0 °F - 70.0 °F 93% 30.00 in 10.0 mi South 3.5 mph - N/A   Overcast
8:31 AM 73.4 °F - 71.6 °F 94% 30.03 in 10.0 mi SSW 5.8 mph - N/A   Overcast
8:52 AM 73.9 °F - 71.1 °F 91% 30.01 in 10.0 mi SSW 5.8 mph - N/A   Overcast
9:06 AM 73.4 °F - 71.6 °F 94% 30.04 in 10.0 mi SSW 6.9 mph - N/A   Overcast
9:41 AM 73.4 °F - 71.6 °F 94% 30.04 in 10.0 mi South 6.9 mph - N/A   Overcast
9:52 AM 75.0 °F - 71.1 °F 87% 30.01 in 10.0 mi SSW 6.9 mph - N/A   Overcast
10:52 AM 77.0 °F - 72.0 °F 84% 30.02 in 10.0 mi SW 4.6 mph - N/A   Overcast
11:43 AM 78.8 °F - 71.6 °F 78% 30.05 in 10.0 mi SW 6.9 mph - N/A   Overcast
11:52 AM 78.1 °F - 72.0 °F 81% 30.02 in 10.0 mi SW 5.8 mph - N/A   Overcast
12:03 PM 78.8 °F - 71.6 °F 78% 30.05 in 10.0 mi SSW 5.8 mph - N/A   Overcast
12:44 PM 78.8 °F - 71.6 °F 78% 30.04 in 10.0 mi West 6.9 mph - N/A   Overcast
1:40 PM 80.6 °F 85.4 °F 73.4 °F 79% 30.04 in 10.0 mi SW 8.1 mph - N/A   Overcast
1:52 PM 82.0 °F 87.4 °F 73.0 °F 74% 30.00 in 10.0 mi Variable 4.6 mph - N/A   Overcast
2:15 PM 82.4 °F 87.2 °F 71.6 °F 70% 30.03 in 10.0 mi SW 5.8 mph - N/A   Overcast
2:34 PM 82.4 °F 88.2 °F 73.4 °F 74% 30.02 in 10.0 mi West 5.8 mph - N/A   Overcast
2:52 PM 82.9 °F 88.8 °F 73.0 °F 72% 29.99 in 10.0 mi Variable 3.5 mph - N/A   Overcast
3:06 PM 82.4 °F 88.2 °F 73.4 °F 74% 30.02 in 10.0 mi WNW 5.8 mph - N/A   Overcast
3:52 PM 84.0 °F 90.2 °F 73.0 °F 69% 29.99 in 10.0 mi NW 6.9 mph - N/A   Overcast
4:23 PM 84.2 °F 90.9 °F 73.4 °F 70% 30.02 in 10.0 mi NNW 8.1 mph - N/A   Overcast
4:33 PM 84.2 °F 90.9 °F 73.4 °F 70% 30.02 in 10.0 mi NNW 6.9 mph - N/A   Mostly Cloudy
4:52 PM 82.9 °F 88.8 °F 73.0 °F 72% 29.99 in 10.0 mi Variable 4.6 mph - N/A   Mostly Cloudy
5:52 PM 86.0 °F 93.8 °F 73.9 °F 67% 29.98 in 10.0 mi Variable 4.6 mph - N/A   Overcast
6:52 PM 84.9 °F 91.4 °F 73.0 °F 67% 29.98 in 10.0 mi Calm Calm - N/A   Scattered Clouds
7:52 PM 82.0 °F 87.4 °F 73.0 °F 74% 29.98 in 10.0 mi Calm Calm - N/A   Mostly Cloudy
8:52 PM 78.1 °F - 73.9 °F 87% 30.00 in 10.0 mi Calm Calm - N/A   Overcast
9:52 PM 77.0 °F - 73.0 °F 88% 30.02 in 10.0 mi Calm Calm - 0.00 in   Partly Cloudy
10:52 PM 75.9 °F - 73.0 °F 91% 30.03 in 10.0 mi North 3.5 mph - 0.00 in   Scattered Clouds